Flag for Austria Weather past 2 weeks in Horn, Lower Austria, Austria

Now
78 °F

Warm.


Feels Like: 79 °F
Forecast: 57 / 82 °F
Wind: 3 mph from South

Location: Retz

Current Time: Jun 30, 2015 at 7:40:12 PM

Latest Report: Jun 30, 2015 at 6:00 PM


Visibility: N/A

Pressure: 30.07 "Hg

Humidity: 46%

Dew point: 55 °F

Location of HornLocation

Historic Weather in Horn — Graph

°F

Horn temperature yesterday

Maximum temperature yesterday: 77 °F (at 3:00 PM)
Minimum temperature yesterday: 56 °F (at 4:00 AM)
Average temperature yesterday: 66 °F

Past Weeks' High & Low Weather Summary

 TemperatureHumidityPressure
High79 °F (Jun 30, 3:00 PM)99% (Jun 23, 3:00 AM)30.24 "Hg (Jun 23, 3:00 AM)
Low48 °F (Jun 18, 5:00 AM)35% (Jun 28, 5:00 PM)29.72 "Hg (Jun 23, 4:00 AM)
Average62 °F65%30.04 "Hg
* Reported Jun 15 6:00 PM — Jun 30 6:00 PM, Horn, Weather by CustomWeather, © 2015

Note: Actual official high and low records may vary slightly from our data, if they occured in-between our weather recording intervals... More about our weather records

Advertising

Horn weather history for previous 24 hours

 ConditionsComfort  
Time TempWeatherWind HumidityBarometerVisibility
6:00 PM
Tue, Jun 30
78 °FWarm.3 mph46%30.07 "HgN/A
4:00 PM77 °FMild.2 mph41%30.09 "HgN/A
3:00 PM79 °FPleasantly warm.3 mph40%30.08 "HgN/A
2:00 PM78 °FPassing clouds.2 mph40%30.10 "Hg17 mi
1:00 PM78 °FWarm.2 mph41%30.12 "HgN/A
12:00 PM75 °FMild.2 mph47%30.13 "HgN/A
11:00 AM72 °FMild.2 mph51%30.14 "HgN/A
10:00 AM70 °FMild.1 mph60%30.15 "HgN/A
9:00 AM65 °FMild.1 mph67%30.16 "HgN/A
8:00 AM61 °FPassing clouds.1 mph77%30.17 "Hg12 mi
7:00 AM60 °FScattered clouds.1 mph77%30.16 "Hg11 mi
6:00 AM60 °FCool.1 mph75%30.16 "HgN/A
5:00 AM57 °FCool.2 mph82%30.16 "HgN/A
4:00 AM62 °FMild.1 mph68%30.14 "HgN/A
3:00 AM64 °FMild.1 mph66%30.15 "HgN/A
2:00 AM64 °FMild.1 mph65%30.16 "HgN/A
1:00 AM65 °FMild.1 mph64%30.16 "HgN/A
12:00 AM65 °FMild.1 mph64%30.16 "HgN/A
10:00 PM
Mon, Jun 29
67 °FMild.3 mph60%30.15 "HgN/A
9:00 PM68 °FMild.2 mph54%30.13 "HgN/A
8:00 PM74 °FPassing clouds.2 mph45%30.10 "Hg19 mi
7:00 PM76 °FMild.2 mph40%30.09 "HgN/A
Weather by CustomWeather, © 2015

See weather overviewHow to use our weather pages